Regional Weather Roundup
Issued by NWS

Home | Current Version | Previous Version | Text Only | Print | Product List | Glossary Off
Versions: 1 2 3 4 5 6 7 8 9 10 11 12 13 14 15 16 17 18 19 20 21 22 23 24 25 26 27 28 29 30 31 32 33 34 35 36 37 38 39 40 41 42 43 44 45 46 47 48 49 50

000
ASUS43 KFSD 181802
RWRSD

WEATHER ROUNDUP FOR SOUTH DAKOTA
NATIONAL WEATHER SERVICE SIOUX FALLS SD
100 PM CDT WED APR 18 2018

NOTE: "FAIR" INDICATES FEW OR NO CLOUDS BELOW 12,000 FEET WITH NO
SIGNIFICANT WEATHER AND/OR OBSTRUCTIONS TO VISIBILITY.


SDZ001>005-009-010-012>017-181900-
NORTHWEST AND NORTH CENTRAL SOUTH DAKOTA

CITY           SKY/WX    TMP DP  RH WIND       PRES   REMARKS
BUFFALO          N/A     53  30  41 NW23G30   30.08F
FAITH            N/A     44  38  79 NW15      30.15S
MOBRIDGE       CLOUDY    41  37  86 NW13      30.13R
$$

SDZ012>016-024>037-041>051-057-063-072>074-181900-
SOUTHWEST AND SOUTH CENTRAL SOUTH DAKOTA

CITY           SKY/WX    TMP DP  RH WIND       PRES   REMARKS
RAPID CTY ARPT PTSUNNY   51  29  42 N25G36    30.16S
PIERRE         CLOUDY    35  34  96 NW13      30.15R WCI  26
CUSTER         SUNNY     44  15  31 NW15G28   30.15R
ELLSWORTH AFB  PTSUNNY   51  29  43 N21G32    30.16R
PHILIP         MOSUNNY   46  38  73 NW18      30.17S
PINE RIDGE     MOSUNNY   52  33  48 N13G26    30.17S
SPEARFISH        N/A     46  27  46 NW20G29   30.19S
WINNER         LGT SNOW  35  31  85 NW10      30.17R FOG     WCI  27
$$

SDZ004>011-016>023-039-040-181900-
NORTHEAST SOUTH DAKOTA

CITY           SKY/WX    TMP DP  RH WIND       PRES   REMARKS
ABERDEEN       CLOUDY    43  32  65 N15       30.11S
WATERTOWN      CLOUDY    37  30  75 NW18      30.03S
BROOKINGS      CLOUDY    36  27  69 NW15      30.03R
SISSETON         N/A     43  33  68 NW15      30.05S
$$

SDZ017-020-022-023-036>040-048>070-181900-
SOUTHEAST SOUTH DAKOTA

CITY           SKY/WX    TMP DP  RH WIND       PRES   REMARKS
SIOUX FALLS    LGT SNOW  32  30  92 N13       30.04R VSB 1   WCI  22
HURON          CLOUDY    35  32  88 NW14      30.11S WCI  26
CHAMBERLAIN    RAIN      37  37 100 NW7       30.15R
MITCHELL       LGT SNOW  34  32  92 NW13      30.12R FOG     WCI  25
YANKTON        LGT SNOW  35  31  85 N16       30.08R FOG     WCI  25
$$

ABBREVIATIONS USED IN REMARKS
   TC - TEMPERATURE IN CELSIUS
  WCI - WIND CHILL INDEX
   HX - HEAT INDEX
  VSB - VISIBILITY





USA.gov is the U.S. government's official web portal to all federal, state and local government web resources and services.